Content
SEND FEEDBACK

Daily
Averages
Monthly
Summary
United States of America

WILMINGTON, NORTH CAROLINA


Home > North America > United States > North Carolina
Elevation: 72 feet     Latitude: 34 16N     Longitude: 077 54W

WEATHER
 
SELECT A DAY
Number of Records: 208,703;   Date Range: 1/1/95 - 7/23/14
 
SHARE

PRINT THIS DATA

[ ← Previous Day ]
WEATHER ALMANAC - MAY 10, 2013
[ Next Day → ]
[ °C ]   °F
Weather ElementAverageHighLow
Temperature74 °F84.9 °F (1:53 pm)63 °F (3:53 am)
Dewpoint60.8 °F63 °F (8:53 pm)57.2 °F (12:53 pm)
Humidity65.8 %93 % (3:53 am)40 % (12:53 pm)
Barometer30.06 in30.10 in (7:53 am)30.02 in (5:53 pm)
Wind Speed7.5 mph17.3 mph (5:53 pm)
Wind Gust24.2 mph (3:53 pm)
Weather ElementAverage
Visibility9.7 mi
Wind DirectionSSE (158.7 °)

Weather ElementTotal
Precipitation---
Cooling Degree Days9 (Base 65)
Growing Degree Days24 (Base 50)
Averaged from 23 records on May 10, 2013
WEATHER CONDITIONS BREAKOUT
WIND DIRECTION BREAKOUT
WEATHER BY HOUR - MAY 10, 2013
[ °C ]   °F
Local TimeTemperatureDewpointHumidityBarometerVisibilityWind DirectionWind SpeedGust SpeedPrecipitationEventsConditions
1:53 AM64.4 °F60.8 °F88 %30.08 in10.0 miSW (220°)4.6 mphClear
2:53 AM64.0 °F61.0 °F90 %30.09 in9.0 miCalmClear
3:53 AM63.0 °F61.0 °F93 %30.08 in8.0 miCalmClear
4:53 AM64.0 °F60.1 °F87 %30.08 in9.0 miSW (220°)4.6 mphClear
5:53 AM63.0 °F59.0 °F87 %30.07 in9.0 miCalmClear
6:53 AM64.0 °F60.1 °F87 %30.09 in9.0 miCalmClear
7:53 AM69.8 °F60.8 °F73 %30.10 in10.0 miWSW (240°)3.5 mphClear
8:53 AM73.0 °F61.0 °F66 %30.09 in10.0 miCalmClear
9:53 AM77.0 °F62.1 °F60 %30.09 in10.0 miSSE (150°)3.5 mphClear
10:53 AM81.0 °F60.1 °F49 %30.09 in10.0 miSSW (200°)5.8 mphClear
11:53 AM84.0 °F62.1 °F47 %30.08 in10.0 miSSW (200°)9.2 mphClear
12:53 PM84.2 °F57.2 °F40 %30.06 in10.0 miSSW (210°)10.4 mphPartly Cloudy
1:53 PM84.9 °F59.0 °F41 %30.05 in10.0 miSSW (210°)16.1 mphPartly Cloudy
2:53 PM84.0 °F61.0 °F46 %30.06 in10.0 miSSW (200°)16.1 mphClear
3:53 PM82.9 °F60.1 °F46 %30.04 in10.0 miSSW (200°)12.7 mph24.2 mphClear
4:53 PM82.0 °F59.0 °F45 %30.04 in10.0 miSouth (190°)15.0 mph23.0 mphClear
5:53 PM79.0 °F60.1 °F52 %30.02 in10.0 miSouth (190°)17.3 mph20.7 mphClear
6:53 PM78.1 °F61.0 °F56 %30.02 in10.0 miSSW (210°)10.4 mph20.7 mphClear
7:53 PM73.9 °F62.1 °F66 %30.03 in10.0 miSSW (210°)9.2 mphClear
8:53 PM72.0 °F63.0 °F73 %30.03 in10.0 miSouth (190°)10.4 mphClear
9:53 PM72.0 °F63.0 °F73 %30.04 in10.0 miSSW (200°)8.1 mphClear
10:53 PM71.1 °F62.1 °F73 %30.04 in10.0 miSSW (210°)8.1 mphClear
11:53 PM71.1 °F63.0 °F75 %30.04 in10.0 miSSW (200°)8.1 mphClear
Hourly data recorded from KILM, located miles away from Wilmington, North Carolina







STORIES FROM OUR PARTNERS